Torna al catalogo

SCOUT A DEB

AttivoPO
NORAD 2702·DEBRIS·🇺🇸 United States

Lanciato Aug 18, 1966 da Vandenberg Space Force Base

Loading…

Prossimi Passaggi (prossime 24 ore)

TLE

AggiornatoSource: Space-Track

Epoca: Sep 14, 2026, 10:45 UTC

1 02702U 66076D   26257.44804802  .00000114  00000-0  19251-3 0  9995
2 02702  88.5625 245.2455 0089086  26.5362 125.6289 13.36573634908257

Traccia SCOUT A DEB in tempo reale con AllMySat

Download on the App Store